When you browse on this site, cookies collect data to enhance your experience and personalize the content and advertising you see.
Visit our Privacy Policy to learn more. By continuing to use the site, you agree to this use of cookies and data.

Hourly Weather Laszkar Gah

Today, 13 July, Monday

Time Temperature Precipitation Wind Pressure Humidity
00:00 +30°C° 0 mm 3 mps 682 mmHg 17%
01:00 +30°C° 0 mm 3 mps 682 mmHg 17%
02:00 +28°C° 0 mm 3 mps 682 mmHg 20%
03:00 +27°C° 0 mm 3 mps 682 mmHg 22%
04:00 +26°C° 0 mm 3 mps 682 mmHg 25%
05:00 +27°C° 0 mm 4 mps 683 mmHg 24%
06:00 +28°C° 0 mm 4 mps 684 mmHg 23%
07:00 +30°C° 0 mm 4 mps 684 mmHg 22%
08:00 +33°C° 0 mm 4 mps 685 mmHg 19%
09:00 +35°C° 0 mm 4 mps 685 mmHg 17%
10:00 +37°C° 0 mm 4 mps 686 mmHg 14%
11:00 +38°C° 0 mm 4 mps 685 mmHg 12%
12:00 +41°C° 0 mm 4 mps 685 mmHg 11%
13:00 +42°C° 0 mm 4 mps 685 mmHg 9%
14:00 +43°C° 0 mm 3 mps 684 mmHg 8%
15:00 +43°C° 0 mm 3 mps 684 mmHg 8%
16:00 +42°C° 0 mm 2 mps 683 mmHg 7%
17:00 +40°C° 0 mm 2 mps 683 mmHg 9%
18:00 +38°C° 0 mm 2 mps 683 mmHg 10%
19:00 +35°C° 0 mm 2 mps 683 mmHg 11%
20:00 +35°C° 0 mm 3 mps 683 mmHg 12%
21:00 +34°C° 0 mm 3 mps 683 mmHg 13%
22:00 +34°C° 0 mm 4 mps 683 mmHg 14%
23:00 +33°C° 0 mm 3 mps 683 mmHg 16%

Tomorrow, 14 July, Tuesday

Time Temperature Precipitation Wind Pressure Humidity
00:00 +31°C° 0 mm 3 mps 683 mmHg 17%
01:00 +30°C° 0 mm 3 mps 683 mmHg 19%
02:00 +29°C° 0 mm 3 mps 684 mmHg 21%
03:00 +28°C° 0 mm 3 mps 684 mmHg 22%
04:00 +28°C° 0 mm 3 mps 684 mmHg 23%
05:00 +29°C° 0 mm 3 mps 685 mmHg 22%
06:00 +30°C° 0 mm 3 mps 686 mmHg 21%
07:00 +33°C° 0 mm 4 mps 686 mmHg 19%
08:00 +35°C° 0 mm 3 mps 687 mmHg 17%
09:00 +37°C° 0 mm 3 mps 687 mmHg 16%
10:00 +38°C° 0 mm 3 mps 687 mmHg 14%
11:00 +40°C° 0 mm 3 mps 687 mmHg 12%
12:00 +42°C° 0 mm 2 mps 686 mmHg 11%
13:00 +43°C° 0 mm 2 mps 686 mmHg 9%
14:00 +45°C° 0 mm 3 mps 686 mmHg 8%
15:00 +47°C° 0 mm 4 mps 685 mmHg 7%
16:00 +47°C° 0 mm 5 mps 685 mmHg 7%
17:00 +44°C° 0 mm 4 mps 685 mmHg 8%
18:00 +40°C° 0 mm 3 mps 684 mmHg 9%
19:00 +38°C° 0 mm 3 mps 684 mmHg 11%
20:00 +37°C° 0 mm 3 mps 684 mmHg 11%
21:00 +36°C° 0 mm 4 mps 684 mmHg 12%
22:00 +36°C° 0 mm 5 mps 684 mmHg 12%
23:00 +34°C° 0 mm 4 mps 684 mmHg 14%

Day after tomorrow, 15 July, Wednesday

Time Temperature Precipitation Wind Pressure Humidity
00:00 +33°C° 0 mm 3 mps 684 mmHg 15%
01:00 +30°C° 0 mm 3 mps 684 mmHg 17%
02:00 +30°C° 0 mm 2 mps 684 mmHg 18%
03:00 +29°C° 0 mm 2 mps 684 mmHg 19%
04:00 +28°C° 0 mm 2 mps 684 mmHg 20%
05:00 +30°C° 0 mm 2 mps 684 mmHg 18%
06:00 +32°C° 0 mm 2 mps 685 mmHg 16%
07:00 +34°C° 0 mm 2 mps 686 mmHg 14%
08:00 +36°C° 0 mm 2 mps 686 mmHg 13%
09:00 +39°C° 0 mm 2 mps 686 mmHg 11%
10:00 +41°C° 0 mm 1 mps 686 mmHg 10%
11:00 +42°C° 0 mm 2 mps 686 mmHg 9%
12:00 +45°C° 0 mm 3 mps 686 mmHg 8%
13:00 +48°C° 0 mm 4 mps 685 mmHg 7%
14:00 +48°C° 0 mm 4 mps 685 mmHg 7%
15:00 +48°C° 0 mm 5 mps 684 mmHg 6%
16:00 +49°C° 0 mm 5 mps 684 mmHg 6%
17:00 +47°C° 0 mm 6 mps 684 mmHg 7%
18:00 +45°C° 0 mm 6 mps 683 mmHg 8%
19:00 +43°C° 0 mm 7 mps 683 mmHg 9%
20:00 +40°C° 0 mm 6 mps 683 mmHg 10%
21:00 +38°C° 0 mm 6 mps 683 mmHg 11%
22:00 +36°C° 0 mm 5 mps 683 mmHg 13%
23:00 +34°C° 0 mm 5 mps 683 mmHg 14%

16 July, Thursday

Time Temperature Precipitation Wind Pressure Humidity
00:00 +33°C° 0 mm 4 mps 683 mmHg 15%
01:00 +31°C° 0 mm 3 mps 682 mmHg 16%
02:00 +30°C° 0 mm 2 mps 682 mmHg 17%
03:00 +29°C° 0 mm 2 mps 682 mmHg 18%
04:00 +28°C° 0 mm 2 mps 682 mmHg 19%
05:00 +29°C° 0 mm 2 mps 683 mmHg 17%
06:00 +31°C° 0 mm 2 mps 684 mmHg 15%
07:00 +34°C° 0 mm 2 mps 684 mmHg 14%
08:00 +36°C° 0 mm 2 mps 684 mmHg 12%
09:00 +38°C° 0 mm 2 mps 684 mmHg 11%
10:00 +40°C° 0 mm 3 mps 684 mmHg 10%
11:00 +41°C° 0 mm 2 mps 684 mmHg 9%
12:00 +42°C° 0 mm 2 mps 684 mmHg 8%
13:00 +45°C° 0 mm 2 mps 683 mmHg 8%
14:00 +45°C° 0 mm 2 mps 683 mmHg 7%
15:00 +46°C° 0 mm 2 mps 682 mmHg 7%
16:00 +46°C° 0 mm 2 mps 682 mmHg 6%
17:00 +43°C° 0 mm 2 mps 682 mmHg 7%
18:00 +40°C° 0 mm 2 mps 681 mmHg 9%
19:00 +38°C° 0 mm 2 mps 681 mmHg 10%
20:00 +37°C° 0 mm 3 mps 681 mmHg 10%
21:00 +36°C° 0 mm 3 mps 682 mmHg 11%
22:00 +34°C° 0 mm 3 mps 682 mmHg 12%
23:00 +33°C° 0 mm 3 mps 682 mmHg 13%

17 July, Friday

Time Temperature Precipitation Wind Pressure Humidity
00:00 +31°C° 0 mm 3 mps 682 mmHg 14%
01:00 +30°C° 0 mm 3 mps 682 mmHg 15%
02:00 +29°C° 0 mm 3 mps 682 mmHg 16%
03:00 +28°C° 0 mm 3 mps 682 mmHg 16%
04:00 +27°C° 0 mm 3 mps 682 mmHg 17%
05:00 +28°C° 0 mm 4 mps 683 mmHg 16%
06:00 +29°C° 0 mm 4 mps 684 mmHg 15%
07:00 +32°C° 0 mm 4 mps 684 mmHg 14%
08:00 +34°C° 0 mm 5 mps 685 mmHg 12%
09:00 +36°C° 0 mm 5 mps 685 mmHg 11%
10:00 +40°C° 0 mm 5 mps 686 mmHg 9%
11:00 +41°C° 0 mm 4 mps 685 mmHg 9%
12:00 +43°C° 0 mm 4 mps 685 mmHg 8%
13:00 +44°C° 0 mm 3 mps 685 mmHg 7%
14:00 +45°C° 0 mm 2 mps 684 mmHg 7%
15:00 +45°C° 0 mm 2 mps 684 mmHg 6%
16:00 +45°C° 0 mm 2 mps 683 mmHg 6%
17:00 +42°C° 0 mm 2 mps 683 mmHg 7%
18:00 +39°C° 0 mm 2 mps 683 mmHg 8%
19:00 +35°C° 0 mm 1 mps 682 mmHg 10%
20:00 +33°C° 0 mm 1 mps 682 mmHg 11%
21:00 +32°C° 0 mm 1 mps 682 mmHg 12%
22:00 +31°C° 0 mm 1 mps 682 mmHg 13%
23:00 +31°C° 0 mm 1 mps 683 mmHg 13%

18 July, Saturday

Time Temperature Precipitation Wind Pressure Humidity
00:00 +30°C° 0 mm 1 mps 683 mmHg 13%
01:00 +30°C° 0 mm 1 mps 683 mmHg 13%
02:00 +30°C° 0 mm 2 mps 683 mmHg 14%
03:00 +29°C° 0 mm 2 mps 683 mmHg 14%
04:00 +29°C° 0 mm 2 mps 683 mmHg 14%
05:00 +30°C° 0 mm 3 mps 684 mmHg 14%
06:00 +31°C° 0 mm 3 mps 685 mmHg 14%
07:00 +34°C° 0 mm 3 mps 686 mmHg 14%
08:00 +36°C° 0 mm 3 mps 686 mmHg 12%
09:00 +38°C° 0 mm 3 mps 686 mmHg 11%
10:00 +40°C° 0 mm 2 mps 687 mmHg 10%
11:00 +42°C° 0 mm 2 mps 686 mmHg 8%
12:00 +43°C° 0 mm 2 mps 686 mmHg 7%
13:00 +46°C° 0 mm 2 mps 686 mmHg 6%
14:00 +46°C° 0 mm 2 mps 685 mmHg 6%
15:00 +46°C° 0 mm 2 mps 685 mmHg 6%
16:00 +47°C° 0 mm 2 mps 684 mmHg 5%
17:00 +42°C° 0 mm 2 mps 684 mmHg 7%
18:00 +39°C° 0 mm 2 mps 683 mmHg 8%
19:00 +35°C° 0 mm 1 mps 683 mmHg 10%
20:00 +34°C° 0 mm 1 mps 683 mmHg 10%
21:00 +33°C° 0 mm 1 mps 683 mmHg 11%
22:00 +33°C° 0 mm 1 mps 683 mmHg 11%
23:00 +32°C° 0 mm 1 mps 683 mmHg 11%
Show more